When you browse on this site, cookies collect data to enhance your experience and personalize the content and advertising you see.
Visit our Privacy Policy to learn more. By continuing to use the site, you agree to this use of cookies and data.
  • En España
  • Lista de países
  • Para 7 días
  • Temperatura del agua
  • El tiempo en el mapa
  • Informadores
  • user-avatar
    Iniciar sesión

    Tiempo cada hora Malanje

    Hoy, 21 Septiembre, Sábado

    Tiempo Temperatura Precipitaciones Viento Presión Humedad
    00:00 +24°C° 0 mm 3 mps 665 mmHg 63%
    01:00 +21°C° 0 mm 2 mps 665 mmHg 68%
    02:00 +21°C° 0 mm 2 mps 664 mmHg 72%
    03:00 +20°C° 0 mm 2 mps 664 mmHg 76%
    04:00 +20°C° 0 mm 1 mps 664 mmHg 80%
    05:00 +21°C° 0 mm 1 mps 665 mmHg 78%
    06:00 +20°C° 0 mm 2 mps 665 mmHg 77%
    07:00 +20°C° 0 mm 2 mps 666 mmHg 74%
    08:00 +25°C° 0 mm 2 mps 667 mmHg 61%
    09:00 +28°C° 0 mm 2 mps 667 mmHg 47%
    10:00 +31°C° 0 mm 2 mps 667 mmHg 33%
    11:00 +34°C° 0 mm 2 mps 667 mmHg 30%
    12:00 +36°C° 0 mm 2 mps 667 mmHg 27%
    13:00 +37°C° 0 mm 2 mps 666 mmHg 25%
    14:00 +36°C° 0 mm 2 mps 666 mmHg 26%
    15:00 +34°C° 0 mm 1 mps 665 mmHg 27%
    16:00 +33°C° 0 mm 1 mps 664 mmHg 28%
    17:00 +31°C° 0 mm 1 mps 665 mmHg 33%
    18:00 +29°C° 0 mm 2 mps 665 mmHg 38%
    19:00 +28°C° 0 mm 2 mps 665 mmHg 42%
    20:00 +27°C° 0 mm 2 mps 665 mmHg 46%
    21:00 +26°C° 0 mm 3 mps 665 mmHg 49%
    22:00 +25°C° 0 mm 3 mps 665 mmHg 52%
    23:00 +25°C° 0 mm 2 mps 665 mmHg 56%

    Mañana, 22 Septiembre, Domingo

    Tiempo Temperatura Precipitaciones Viento Presión Humedad
    00:00 +24°C° 0 mm 2 mps 665 mmHg 59%
    01:00 +23°C° 0 mm 2 mps 665 mmHg 63%
    02:00 +21°C° 0 mm 2 mps 665 mmHg 67%
    03:00 +21°C° 0 mm 2 mps 664 mmHg 72%
    04:00 +21°C° 0 mm 1 mps 664 mmHg 76%
    05:00 +21°C° 0 mm 1 mps 665 mmHg 75%
    06:00 +21°C° 0 mm 2 mps 665 mmHg 74%
    07:00 +21°C° 0 mm 2 mps 666 mmHg 73%
    08:00 +26°C° 0 mm 2 mps 667 mmHg 60%
    09:00 +29°C° 0 mm 2 mps 667 mmHg 48%
    10:00 +34°C° 0 mm 2 mps 668 mmHg 35%
    11:00 +34°C° 0 mm 2 mps 667 mmHg 33%
    12:00 +35°C° 0 mm 2 mps 666 mmHg 30%
    13:00 +35°C° 0 mm 2 mps 665 mmHg 28%
    14:00 +34°C° 0.1 mm 2 mps 665 mmHg 32%
    15:00 +33°C° 0.1 mm 3 mps 665 mmHg 37%
    16:00 +30°C° 0.1 mm 3 mps 664 mmHg 41%
    17:00 +28°C° 0.5 mm 3 mps 664 mmHg 48%
    18:00 +26°C° 0.5 mm 3 mps 664 mmHg 56%
    19:00 +24°C° 0.5 mm 3 mps 665 mmHg 63%
    20:00 +24°C° 0.6 mm 3 mps 665 mmHg 66%
    21:00 +22°C° 0.6 mm 3 mps 665 mmHg 69%
    22:00 +22°C° 0.6 mm 3 mps 666 mmHg 72%
    23:00 +23°C° 0 mm 2 mps 665 mmHg 73%

    Pasado mañana, 23 Septiembre, Lunes

    Tiempo Temperatura Precipitaciones Viento Presión Humedad
    00:00 +23°C° 0 mm 2 mps 665 mmHg 73%
    01:00 +23°C° 0 mm 1 mps 665 mmHg 74%
    02:00 +22°C° 0 mm 1 mps 665 mmHg 77%
    03:00 +22°C° 0 mm 1 mps 664 mmHg 79%
    04:00 +21°C° 0 mm 1 mps 664 mmHg 82%
    05:00 +22°C° 0 mm 1 mps 665 mmHg 80%
    06:00 +22°C° 0 mm 1 mps 665 mmHg 78%
    07:00 +22°C° 0 mm 1 mps 666 mmHg 76%
    08:00 +26°C° 0 mm 1 mps 666 mmHg 64%
    09:00 +29°C° 0 mm 1 mps 667 mmHg 51%
    10:00 +33°C° 0 mm 1 mps 668 mmHg 38%
    11:00 +34°C° 0 mm 1 mps 667 mmHg 34%
    12:00 +36°C° 0 mm 1 mps 667 mmHg 30%
    13:00 +37°C° 0 mm 1 mps 666 mmHg 26%
    14:00 +35°C° 0.1 mm 2 mps 665 mmHg 34%
    15:00 +31°C° 0.1 mm 2 mps 664 mmHg 42%
    16:00 +28°C° 0.1 mm 2 mps 663 mmHg 49%
    17:00 +27°C° 0.1 mm 2 mps 664 mmHg 52%
    18:00 +27°C° 0.1 mm 2 mps 664 mmHg 54%
    19:00 +26°C° 0.1 mm 2 mps 665 mmHg 56%
    20:00 +25°C° 0 mm 1 mps 665 mmHg 59%
    21:00 +25°C° 0 mm 1 mps 665 mmHg 61%
    22:00 +25°C° 0 mm 1 mps 666 mmHg 64%
    23:00 +24°C° 0 mm 1 mps 665 mmHg 66%

    24 Septiembre, Martes

    Tiempo Temperatura Precipitaciones Viento Presión Humedad
    00:00 +24°C° 0 mm 2 mps 665 mmHg 68%
    01:00 +23°C° 0 mm 2 mps 665 mmHg 71%
    02:00 +23°C° 0 mm 2 mps 665 mmHg 72%
    03:00 +21°C° 0 mm 2 mps 664 mmHg 73%
    04:00 +22°C° 0 mm 1 mps 664 mmHg 74%
    05:00 +21°C° 0 mm 2 mps 664 mmHg 73%
    06:00 +21°C° 0 mm 2 mps 665 mmHg 73%
    07:00 +21°C° 0 mm 2 mps 665 mmHg 72%
    08:00 +26°C° 0 mm 2 mps 666 mmHg 61%
    09:00 +29°C° 0 mm 2 mps 666 mmHg 49%
    10:00 +32°C° 0 mm 2 mps 667 mmHg 38%
    11:00 +35°C° 0 mm 2 mps 667 mmHg 33%
    12:00 +36°C° 0 mm 1 mps 666 mmHg 29%
    13:00 +39°C° 0 mm 1 mps 666 mmHg 25%
    14:00 +37°C° 0.1 mm 2 mps 665 mmHg 29%
    15:00 +35°C° 0.1 mm 2 mps 664 mmHg 33%
    16:00 +33°C° 0.1 mm 3 mps 664 mmHg 37%
    17:00 +30°C° 0.7 mm 3 mps 664 mmHg 47%
    18:00 +27°C° 0.7 mm 3 mps 664 mmHg 56%
    19:00 +25°C° 0.7 mm 4 mps 664 mmHg 66%
    20:00 +24°C° 0.2 mm 3 mps 664 mmHg 67%
    21:00 +24°C° 0.2 mm 2 mps 664 mmHg 68%
    22:00 +23°C° 0.2 mm 2 mps 664 mmHg 69%
    23:00 +21°C° 0 mm 2 mps 664 mmHg 72%

    25 Septiembre, Miércoles

    Tiempo Temperatura Precipitaciones Viento Presión Humedad
    00:00 +21°C° 0 mm 2 mps 664 mmHg 76%
    01:00 +20°C° 0 mm 2 mps 664 mmHg 79%
    02:00 +19°C° 0 mm 3 mps 664 mmHg 82%
    03:00 +19°C° 0 mm 3 mps 664 mmHg 84%
    04:00 +18°C° 0 mm 4 mps 664 mmHg 87%
    05:00 +18°C° 0 mm 4 mps 664 mmHg 85%
    06:00 +19°C° 0 mm 3 mps 665 mmHg 83%
    07:00 +19°C° 0 mm 3 mps 666 mmHg 80%
    08:00 +22°C° 0 mm 3 mps 666 mmHg 70%
    09:00 +25°C° 0 mm 2 mps 666 mmHg 59%
    10:00 +28°C° 0 mm 2 mps 667 mmHg 48%
    11:00 +30°C° 0 mm 2 mps 666 mmHg 42%
    12:00 +32°C° 0 mm 2 mps 666 mmHg 36%
    13:00 +35°C° 0 mm 2 mps 666 mmHg 31%
    14:00 +35°C° 0 mm 2 mps 665 mmHg 31%
    15:00 +35°C° 0 mm 2 mps 665 mmHg 31%
    16:00 +34°C° 0 mm 3 mps 664 mmHg 30%
    17:00 +30°C° 1.1 mm 3 mps 664 mmHg 45%
    18:00 +26°C° 1.1 mm 3 mps 663 mmHg 60%
    19:00 +22°C° 1.1 mm 4 mps 663 mmHg 75%
    20:00 +22°C° 0.1 mm 3 mps 664 mmHg 74%
    21:00 +23°C° 0.1 mm 2 mps 664 mmHg 72%
    22:00 +23°C° 0.1 mm 1 mps 665 mmHg 70%
    23:00 +21°C° 0.1 mm 2 mps 665 mmHg 73%

    26 Septiembre, Jueves

    Tiempo Temperatura Precipitaciones Viento Presión Humedad
    00:00 +21°C° 0.1 mm 2 mps 665 mmHg 76%
    01:00 +20°C° 0.1 mm 3 mps 665 mmHg 79%
    02:00 +19°C° 0.1 mm 3 mps 664 mmHg 81%
    03:00 +19°C° 0.1 mm 2 mps 664 mmHg 83%
    04:00 +18°C° 0.1 mm 2 mps 664 mmHg 85%
    05:00 +19°C° 0 mm 2 mps 665 mmHg 83%
    06:00 +19°C° 0 mm 2 mps 665 mmHg 81%
    07:00 +19°C° 0 mm 2 mps 666 mmHg 78%
    08:00 +23°C° 0 mm 2 mps 666 mmHg 66%
    09:00 +27°C° 0 mm 2 mps 667 mmHg 53%
    10:00 +30°C° 0 mm 1 mps 668 mmHg 40%
    11:00 +33°C° 0 mm 1 mps 667 mmHg 36%
    12:00 +35°C° 0 mm 1 mps 667 mmHg 31%
    13:00 +35°C° 0 mm 0 mps 667 mmHg 27%
    14:00 +34°C° 0 mm 0 mps 666 mmHg 28%
    15:00 +33°C° 0 mm 0 mps 665 mmHg 29%
    16:00 +31°C° 0 mm 0 mps 664 mmHg 30%
    17:00 +31°C° 0.1 mm 1 mps 664 mmHg 38%
    18:00 +29°C° 0.1 mm 2 mps 664 mmHg 46%
    19:00 +26°C° 0.1 mm 3 mps 664 mmHg 55%
    20:00 +26°C° 0 mm 2 mps 665 mmHg 55%
    21:00 +26°C° 0 mm 2 mps 665 mmHg 56%
    22:00 +25°C° 0 mm 2 mps 666 mmHg 57%
    23:00 +24°C° 0 mm 2 mps 666 mmHg 62%
    Mostrar más